User: anonymous   Login
Location: Unspecified
(0.0000°N, 0.0000°E)
Time: 23:57:54
(UTC+00:00)
Language:

ONEWEB-0443 - Orbit

View from above orbital plane
View from above orbital plane
View from above satellite
View from above satellite

Ground track
Ground track

The orbit is defined by the following mean orbital elements,

1 51637U          26145.36722948 +.00000000 +00000-0 +41217-4 0 00003
2 51637  87.9153  10.4178 0002076  77.3945 282.7419 13.17650787    06
Epoch (UTC): 25 May 2026 08:48:48
Eccentricity: 0.0002076
inclination: 87.9153°
perigee height: 1192 km
apogee height: 1195 km
right ascension of ascending node: 10.4178°
argument of perigee: 77.3945°
revolutions per day: 13.17650787
mean anomaly at epoch: 282.7419°

The dashed part of the orbit path shows where the satellite is in the earth's shadow,  

DLR